Location: Cassano d�Adda
(45.5333°N, 9.5167°E)
Time: 20:06:15
(UTC+00:00)

Shenzhou-11 Module - Pass Details

Date: 08 December 2019
Orbit: 302 x 315 km, 42.8° (Epoch: 25 January)

Event Time Altitude Azimuth Distance (km) Brightness Sun altitude
Rises 16:40:03 0° 257° (WSW) 2,075 7.8 -10.4°
Reaches altitude 10° 16:42:05 10° 251° (WSW) 1,239 6.2 -10.8°
Maximum altitude 16:44:46 45° 176° (S) 450 2.5 -11.2°
Enters shadow 16:46:43 16° 106° (ESE) 952 3.6 -11.5°
